Dewpoint
59 60 59 58 58 57 57 57 56 56 56 55 55 54 53 53 53 53 52 51 51 51 52 53 54 55 49 44 37 48 61 60 38 32 30 29 18 19 19 18 16 18 27 28 37 40 43
56 57 58 59 59 58 57 57 57 56 56 55 55 54 54 53 53 53 52 51 51 51 52 53 54 55 51 38 37 46 40 35 31 29 28 23 20 19 15 15 22 27 28 31 37 39 41
53 54 56 56 57 58 58 57 57 56 56 55 55 54 54 53 53 52 52 51 50 51 52 53 54 51 44 39 36 40 35 31 29 29 22 22 25 22 22 22 26 25 24 27 34 38 40
51 51 52 53 55 56 57 57 57 57 56 56 55 54 53 53 52 52 52 50 50 51 53 54 55 48 44 40 36 34 32 30 29 26 22 23 25 24 28 28 25 23 26 24 29 32 36
49 49 50 50 52 54 55 56 57 57 57 56 55 54 53 53 52 51 51 49 50 52 54 55 50 49 42 34 19 27 29 28 26 24 29 24 26 25 26 24 24 22 19 22 28 31 33
48 48 48 50 50 51 52 54 55 55 56 56 55 54 53 52 52 50 50 49 52 52 51 47 41 39 41 32 18 19 25 26 25 26 27 28 25 25 25 21 20 20 19 19 26 27 29
46 47 47 48 49 49 50 51 53 53 54 56 55 54 53 52 51 50 46 48 46 45 41 35 34 31 23 23 23 21 22 20 24 28 24 25 23 23 23 23 21 18 17 30 33 31 26
46 46 47 47 48 49 49 50 50 51 53 55 55 53 53 52 51 49 48 48 46 47 45 44 40 36 25 23 22 21 23 24 29 23 27 28 24 23 23 23 23 21 21 30 32 31 30
45 45 46 46 47 47 48 49 50 50 52 54 54 53 52 51 49 48 41 47 49 52 47 41 32 34 22 21 21 19 21 24 23 24 25 26 26 26 24 22 22 20 22 26 29 29 28
44 45 45 46 46 47 48 49 49 50 52 53 53 52 51 50 42 37 43 48 51 53 44 36 27 22 17 19 20 19 21 22 23 20 24 25 25 25 27 23 22 24 26 24 28 27 23
43 44 44 45 46 46 47 48 49 50 53 53 52 52 51 50 43 40 41 51 51 53 32 30 22 20 16 15 20 19 22 25 24 24 24 26 26 25 24 24 24 26 26 24 24 26 25
43 43 44 44 45 46 46 47 48 51 53 52 51 51 50 47 44 42 45 53 54 37 20 29 18 18 18 17 17 21 24 26 28 27 26 25 25 26 28 25 24 27 26 27 25 24 24
42 43 43 44 45 45 45 46 48 51 52 52 50 50 48 46 38 38 53 52 40 29 28 18 18 18 16 19 19 20 22 25 23 24 25 24 23 23 28 25 27 28 25 24 24 24 23
42 42 43 43 44 44 45 45 48 49 50 51 50 49 48 46 46 46 53 45 26 30 22 19 17 16 18 19 19 20 19 20 28 28 23 23 24 26 26 28 27 26 26 26 21 23 25
42 42 42 43 44 44 44 46 47 47 48 51 49 48 50 50 49 51 49 34 33 28 22 22 16 17 17 18 19 17 17 26 29 31 30 31 30 32 30 31 29 29 26 29 27 30 26
44 42 42 42 44 43 44 46 46 48 49 51 44 44 44 52 56 52 45 39 37 30 22 25 23 23 23 18 19 19 26 30 32 31 30 29 22 29 32 32 29 30 30 28 30 15 20
45 43 41 42 43 43 44 47 47 48 50 49 43 42 51 58 56 49 37 40 35 27 23 29 29 27 24 25 21 22 28 31 30 30 30 27 27 27 32 30 29 29 28 30 34 32 22
46 44 42 41 43 43 44 46 46 48 50 47 43 38 55 57 45 42 37 34 34 26 28 29 31 31 30 30 28 30 30 31 32 31 30 36 32 28 25 36 35 35 35 36 23 26 27
46 45 42 41 43 43 44 45 46 47 49 43 39 37 55 54 37 35 35 34 32 28 26 31 32 32 30 30 28 31 33 36 34 36 33 33 31 23 23 31 36 35 35 38 39 35 29
46 46 43 41 42 42 43 44 46 46 48 45 39 35 47 48 43 39 38 34 28 33 31 30 31 31 29 28 28 29 32 36 36 29 41 38 29 28 25 27 33 32 34 34 36 30 29
46 46 45 43 42 42 43 44 45 46 48 45 39 36 43 38 36 31 33 39 31 26 30 31 29 26 30 28 28 28 29 33 34 37 37 35 30 30 28 28 30 33 31 32 31 32 28
46 46 46 43 42 42 43 43 44 46 48 43 39 36 40 41 40 31 33 35 32 27 27 25 28 29 33 33 33 31 31 30 29 33 32 33 30 29 27 30 33 32 33 34 35 34 32
46 46 46 43 41 41 42 43 43 45 47 42 43 44 44 42 40 36 33 34 34 32 33 32 33 34 32 32 33 34 35 35 33 31 31 30 30 30 28 32 31 25 30 34 35 35 31
46 46 46 43 41 40 42 42 43 44 45 45 44 43 42 39 40 33 32 34 34 34 31 36 35 32 32 34 36 35 33 33 33 33 33 32 30 31 27 32 15 28 35 33 31 29 30
46 46 45 43 41 40 42 42 42 43 45 45 44 44 42 36 36 37 35 36 36 37 35 35 35 33 35 35 32 30 30 30 29 31 30 33 33 28 24 22 25 28 30 33 30 28 29
46 45 45 44 42 40 41 41 42 43 45 45 44 47 45 36 38 41 39 37 36 34 35 35 38 38 34 32 25 22 23 24 25 27 30 32 35 30 27 24 16 29 29 31 34 31 36
46 45 45 44 41 40 39 40 41 43 44 45 44 45 45 35 39 43 39 39 37 36 35 34 35 35 37 33 25 25 25 29 26 27 30 32 32 26 24 24 28 33 30 34 31 34 38
45 45 45 44 42 40 37 39 40 42 43 45 43 45 45 38 38 44 44 41 41 39 34 36 32 32 34 31 30 26 28 30 31 30 31 31 29 26 28 23 19 34 32 34 37 41 39
45 45 45 44 42 40 37 39 39 42 43 45 43 44 45 41 39 42 43 44 42 44 42 38 35 34 36 34 33 32 33 32 31 27 32 29 34 28 32 32 37 38 38 40 40 38 39
Lifted_Index
4 4 4 4 5 5 5 6 5 6 6 6 7 8 10 11 13 13 14 14 14 15 15 15 14 13 12 10 9 9 9 10 10 10 9 8 8 8 7 7 6 6 5 4 2 2 1
5 4 4 5 5 5 6 6 6 6 6 6 7 8 9 11 12 13 13 14 14 15 15 14 13 12 11 10 9 9 9 10 10 9 9 8 8 7 7 7 6 5 5 3 2 1 1
6 5 5 5 5 6 6 6 6 6 6 6 7 7 8 10 11 12 13 13 13 14 14 13 12 11 10 10 9 8 9 9 9 9 8 8 7 7 7 6 5 5 4 3 2 1 1
7 6 6 6 6 6 6 6 7 7 7 7 7 7 8 9 10 11 12 12 12 12 12 12 11 10 9 9 9 8 8 8 8 8 8 8 7 7 6 5 5 4 4 3 2 1 1
9 9 8 7 7 7 7 6 7 7 7 7 7 7 7 8 9 11 11 10 10 10 10 10 9 8 7 7 8 8 7 7 8 8 8 7 7 6 6 5 4 3 3 2 2 1 1
12 11 10 9 8 8 7 7 7 7 7 7 7 7 7 8 9 10 8 6 6 7 7 7 7 7 6 7 7 8 7 7 7 7 7 7 6 5 5 4 3 2 2 1 1 1 1
12 12 12 12 11 10 8 8 7 7 8 8 7 7 7 8 9 8 5 3 3 3 4 5 5 6 6 6 7 7 7 6 6 6 6 6 5 4 4 3 2 2 1 0 0 0 0
12 12 13 12 12 11 11 9 8 8 8 8 7 7 8 8 9 7 4 2 2 2 3 3 4 5 6 6 6 6 6 6 6 5 5 4 4 3 3 2 2 1 0 -1 -1 -1 -0
12 12 12 13 13 13 12 11 10 9 8 8 7 7 8 9 9 6 3 3 3 3 2 3 4 4 5 6 6 5 5 5 5 4 4 3 3 3 2 2 1 1 -0 -1 -1 -1 -0
12 12 12 12 13 13 13 12 11 10 9 8 7 8 8 9 9 6 4 3 3 2 2 3 4 4 5 6 5 5 5 5 4 4 3 3 2 2 2 1 1 1 0 0 -0 0 0
12 12 12 12 12 13 13 12 12 11 10 8 7 8 8 9 9 7 5 4 3 2 2 3 4 5 5 5 5 5 5 5 4 3 2 2 2 2 1 1 1 1 1 1 1 1 1
12 12 12 12 12 12 12 12 12 11 10 9 8 7 8 9 9 9 7 5 3 2 2 3 4 5 5 5 5 4 4 4 3 3 2 2 2 2 2 2 2 2 2 2 2 1 1
11 11 12 12 12 12 12 12 12 11 10 9 8 8 8 8 9 9 7 4 2 2 3 4 4 4 4 4 4 4 4 3 3 2 2 2 2 2 2 2 2 2 2 2 1 1 1
10 11 11 11 12 12 12 12 12 11 11 10 9 8 8 8 8 7 5 3 3 3 3 4 4 4 4 4 4 4 4 3 3 2 2 2 2 2 2 2 2 2 1 1 1 0 0
9 10 11 11 11 12 12 12 12 11 10 10 9 8 7 7 6 5 3 3 3 3 4 3 3 3 3 3 3 3 3 3 3 3 3 2 2 2 2 2 2 1 1 1 1 0 0
8 9 10 11 11 12 12 12 11 11 10 9 8 7 6 5 4 3 3 2 3 3 4 3 3 3 3 3 3 3 3 3 3 3 4 3 3 2 2 2 2 2 1 1 0 -0 -0
7 8 10 11 11 12 12 11 11 10 9 9 8 6 4 3 3 3 3 3 3 3 4 3 3 3 2 3 3 3 3 3 3 4 4 4 4 3 2 2 2 1 1 0 -0 -0 -0
7 8 9 11 11 11 11 11 11 10 9 8 8 6 3 2 3 4 4 4 3 4 4 4 3 3 3 3 3 3 3 3 4 4 4 4 4 4 3 2 1 1 0 0 0 -0 -0
7 8 9 10 11 11 11 11 10 9 8 8 7 5 3 3 4 4 4 4 4 4 4 4 3 3 3 3 3 3 3 4 4 5 5 4 4 4 3 2 1 0 -0 -0 0 0 0
7 7 9 10 10 11 10 10 10 9 8 7 7 5 3 3 4 4 3 3 4 4 4 4 3 3 3 3 3 4 4 4 5 5 5 5 4 4 3 2 1 -0 -0 -0 -0 0 0
7 7 8 9 10 11 10 10 10 9 7 7 6 5 4 4 4 3 3 3 4 4 4 4 4 4 4 3 4 4 4 5 5 5 5 5 4 4 2 1 1 0 0 0 -0 0 0
7 7 8 9 10 10 10 10 10 9 7 6 6 5 4 4 4 3 3 3 3 4 4 4 4 4 4 4 4 4 5 5 5 5 5 5 4 3 2 1 1 1 1 0 0 -0 -0
7 7 8 9 10 11 11 10 10 10 8 7 6 6 4 3 3 3 3 3 3 4 4 4 4 4 4 4 5 5 5 5 5 5 5 5 4 3 2 2 2 1 1 1 1 0 0
7 7 8 9 10 11 11 11 10 10 9 8 7 6 4 3 3 3 3 3 4 4 4 4 4 4 5 5 5 5 5 5 5 5 5 4 4 3 3 2 2 2 2 1 1 1 1
7 7 8 9 10 11 11 11 11 11 10 9 7 6 4 3 3 3 3 4 4 4 4 4 4 5 5 5 5 4 4 5 5 5 4 4 3 3 3 3 3 3 2 2 2 2 2
7 8 8 9 10 11 11 12 11 11 10 9 7 6 5 3 3 3 4 4 4 4 4 4 5 5 5 5 4 4 4 4 4 4 4 3 3 3 3 2 2 3 3 2 2 2 2
7 8 8 9 10 11 12 12 12 11 10 9 7 6 5 4 4 4 4 4 4 4 5 5 6 6 5 5 4 3 3 4 3 3 3 3 3 3 3 2 2 3 3 2 2 2 2
7 7 8 9 10 11 12 13 13 12 11 9 7 6 6 5 4 4 4 4 4 4 5 6 6 6 5 5 4 4 4 4 3 3 3 3 3 3 3 2 2 3 3 2 2 2 2
7 7 8 9 10 11 12 13 13 12 11 9 7 6 7 6 5 5 5 5 4 4 5 6 6 6 5 4 4 3 3 4 3 3 3 3 3 3 3 2 3 3 3 2 2 2 2